[[{"header":{"parameterUnit":"m.s-1","parameterCategory":2,"la1":30.2991,"la2":30.254,"lo1":-89.0895,"lo2":-89.0444,"dy":0.0017,"dx":0.0017,"nx":28,"ny":28,"refTime":"2024-12-16T03:00:00:Z","depth":"0","parameterNumber":2,"parameterNumberName":"U-component_of_CURRENTS"},"data":[0,0,0,0,0,0,0,0,0,0,0,0,0,0,0,0,0,0,0,0,0,0,0,0,0,0,0,0,0,0,0,0,0,0,0,0,0,0,0,0,0,0,0,0,0,0,0,0,0,0,0,0,0,0,0,0,0,0,-0.2772,-0.2773,0,-0.2836,-0.2837,-0.2837,-0.279,-0.2788,-0.2786,-0.2785,-0.2782,-0.2784,-0.2785,0,0,0,0,0,0,0,0,0,0,0,0,0,-0.2624,-0.2627,-0.2772,-0.2773,-0.2774,-0.2836,-0.2837,-0.2838,-0.279,-0.2788,-0.2786,-0.2784,-0.2782,-0.2784,-0.2786,0,0,0,0,0,0,0,0,0,0,0,0,0,-0.2686,-0.2628,-0.2772,-0.276,-0.276,-0.2836,-0.2837,-0.2838,-0.2791,-0.2788,-0.2785,-0.2783,-0.2781,-0.2783,-0.2786,-0.2856,0,0,-0.2793,-0.2794,0,0,0,0,0,0,0,0,-0.2683,-0.2691,-0.2761,-0.2761,-0.2761,-0.2805,-0.2784,-0.2842,-0.2792,-0.2776,-0.2785,-0.2781,-0.2787,-0.2789,-0.2804,-0.2856,-0.2856,-0.2794,-0.2795,-0.2796,-0.2797,0,0,0,0,0,0,0,-0.2678,-0.2688,-0.2795,-0.2762,-0.2762,-0.2757,-0.2762,-0.2795,-0.2793,-0.2777,-0.2775,-0.2787,-0.2786,-0.2802,-0.2804,-0.2856,-0.2793,-0.2796,-0.2797,-0.2798,-0.2906,-0.2907,0,0,0,0,0,0,-0.2679,-0.2685,-0.2793,-0.2797,-0.2717,-0.2762,-0.2768,-0.2791,-0.2794,-0.2793,-0.2789,-0.2785,-0.2799,-0.2801,-0.2804,-0.2825,-0.2796,-0.2798,-0.28,-0.2904,-0.2906,-0.2907,0,0,0,0,0,0,-0.2676,-0.2688,-0.279,-0.2743,-0.2756,-0.2768,-0.2794,-0.2794,-0.28,-0.2805,-0.2801,-0.2794,-0.2797,-0.28,-0.2824,-0.2826,-0.2799,-0.2802,-0.2903,-0.2905,-0.2907,-0.2908,0,0,0,0,0,0,-0.2671,-0.2687,-0.2703,-0.2744,-0.2759,-0.2825,-0.2797,-0.2797,-0.2813,-0.2807,-0.2808,-0.2805,-0.2795,-0.2821,-0.2827,-0.2829,-0.2804,-0.2901,-0.2904,-0.2906,-0.2906,-0.2909,-0.2913,0,0,0,0,0,-0.2666,-0.2698,-0.2704,-0.2717,-0.2781,-0.2826,-0.2833,-0.283,-0.2816,-0.2823,-0.2824,-0.2805,-0.284,-0.2825,-0.2831,-0.2834,-0.29,-0.2903,-0.2906,-0.2904,-0.2909,-0.2912,0,0,0,0,0,0,-0.2642,-0.2699,-0.2705,-0.2752,-0.2782,-0.2818,-0.2833,-0.2838,-0.2849,-0.284,-0.2833,-0.2832,-0.2849,-0.2858,-0.284,-0.2875,-0.2864,-0.2869,-0.2861,-0.2865,-0.2868,-0.2856,-0.2806,0,0,0,0,0,-0.2649,-0.2683,-0.2732,-0.2766,-0.2785,-0.2812,-0.2831,-0.2834,-0.2853,-0.2854,-0.2855,-0.2862,-0.2875,-0.2879,-0.2892,-0.2928,-0.2922,-0.2933,-0.2936,-0.2939,-0.2936,-0.2936,-0.2938,-0.2917,-0.2917,-0.2917,0,0,-0.2649,-0.2684,-0.2703,-0.2762,-0.2786,-0.2819,-0.2815,-0.2847,-0.2862,-0.2857,-0.2872,-0.2877,-0.2888,-0.2908,-0.2917,-0.2911,-0.2945,-0.2943,-0.2945,-0.294,-0.2939,-0.2941,-0.2942,-0.292,-0.2919,-0.2919,0,0,-0.2662,-0.2699,-0.2728,-0.2759,-0.2804,-0.2825,-0.2836,-0.2875,-0.2876,-0.2909,-0.2897,-0.2907,-0.2937,-0.2935,-0.2941,-0.2982,-0.2962,-0.2987,-0.2993,-0.2993,-0.2994,-0.2995,-0.2993,-0.2993,-0.2988,-0.2988,-0.2988,0,-0.2655,-0.2702,-0.2741,-0.2776,-0.2798,-0.2828,-0.2856,-0.2878,-0.2913,-0.292,-0.2908,-0.2942,-0.2947,-0.2966,-0.297,-0.2985,-0.2982,-0.2971,-0.2994,-0.2995,-0.2996,-0.2993,-0.2994,-0.2989,-0.2989,-0.2989,-0.2989,0,-0.2688,-0.2723,-0.2744,-0.2794,-0.2825,-0.2856,-0.2895,-0.2917,-0.2925,-0.294,-0.2958,-0.2968,-0.2981,-0.2986,-0.2989,-0.3001,-0.2996,-0.2995,-0.2976,-0.2997,-0.2994,-0.2994,-0.2989,-0.2989,-0.2989,-0.2989,0,0,-0.2666,-0.275,-0.2752,-0.2772,-0.2835,-0.2861,-0.2899,-0.2936,-0.2954,-0.2972,-0.2988,-0.3002,-0.2999,-0.3007,-0.3009,-0.301,-0.3012,-0.3004,-0.3004,-0.2986,-0.3008,-0.2928,-0.292,-0.3009,-0.3009,-0.3009,-0.3004,0,-0.2669,-0.2726,-0.2771,-0.281,-0.2838,-0.2882,-0.2916,-0.2952,-0.2976,-0.3002,-0.3007,-0.3024,-0.301,-0.3015,-0.3013,-0.3021,-0.3013,-0.3013,-0.3004,-0.3003,-0.2916,-0.2918,-0.2795,-0.2774,-0.3005,-0.3005,-0.3005,0,-0.2667,-0.2709,-0.2751,-0.2814,-0.2831,-0.2859,-0.2908,-0.2942,-0.2992,-0.3013,-0.3027,-0.3039,-0.3051,-0.3033,-0.3033,-0.3033,-0.3016,-0.3012,-0.3012,-0.2933,-0.2922,-0.2791,-0.2765,-0.2739,-0.3005,-0.3005,-0.3005,0,-0.2605,-0.2683,-0.271,-0.2733,-0.2818,-0.2836,-0.2874,-0.2932,-0.2963,-0.3011,-0.3036,-0.3054,-0.306,-0.3051,-0.3037,-0.3039,-0.3028,-0.3033,-0.294,-0.2935,-0.2826,-0.281,-0.2756,-0.3014,-0.3014,-0.3014,-0.3014,0,-0.2576,-0.2591,-0.2681,-0.2694,-0.2723,-0.2796,-0.2828,-0.2872,-0.2943,-0.2974,-0.3023,-0.3045,-0.3062,-0.3061,-0.3046,-0.2986,-0.303,-0.2933,-0.2923,-0.2824,-0.2809,-0.2777,-0.28,-0.3014,-0.3014,-0.3014,-0.3014,0,-0.2485,-0.2551,-0.258,-0.2667,-0.2689,-0.2701,-0.279,-0.282,-0.2898,-0.2942,-0.2957,-0.3035,-0.3035,-0.3035,-0.3027,-0.2981,-0.2891,-0.291,-0.279,-0.2764,-0.2641,-0.267,-0.261,-0.254,-0.2813,-0.2811,-0.2809,0,-0.244,-0.2447,-0.2529,-0.2543,-0.2575,-0.262,-0.2654,-0.2764,-0.2806,-0.2925,-0.2937,-0.2976,-0.2968,-0.2933,-0.2876,-0.2818,-0.2807,-0.2665,-0.2638,-0.2605,-0.2631,-0.2651,-0.2598,-0.2506,-0.2501,-0.2498,-0.2495,0,-0.2336,-0.2365,-0.2391,-0.2428,-0.2461,-0.2504,-0.2566,-0.2602,-0.2731,-0.2776,-0.2831,-0.284,-0.2835,-0.2731,-0.2662,-0.2611,-0.259,-0.2592,-0.2588,-0.2402,-0.2391,-0.2327,-0.2553,-0.2465,-0.2468,-0.247,-0.2472,-0.2473,-0.2234,-0.2226,-0.2264,-0.2283,-0.2323,-0.235,-0.2341,-0.2436,-0.2474,-0.2521,-0.2642,-0.2622,-0.2595,-0.2485,-0.2436,-0.2304,-0.2379,-0.2233,-0.2277,-0.2307,-0.2205,-0.2358,-0.2239,-0.2241,-0.2242,-0.2244,-0.2245,0,-0.2093,-0.2104,-0.2118,-0.2136,-0.2121,-0.2195,-0.2246,-0.2218,-0.2209,-0.2309,-0.2327,-0.233,-0.2219,-0.2212,-0.2112,-0.2019,-0.1978,-0.1977,-0.1983,-0.1948,-0.2095,-0.2045,-0.184,-0.184,-0.184,-0.184,-0.184,-0.184,-0.2018,-0.1977,-0.199,-0.1914,-0.1927,-0.1857,-0.1849,-0.1837,-0.1872,-0.1868,-0.1918,-0.2008,-0.2022,-0.2123,-0.1987,-0.1889,-0.1851,-0.179,-0.1834,-0.1955,-0.1983,-0.201,-0.1966,-0.1748,-0.1748,-0.1601,-0.1601,-0.16]},{"header":{"parameterUnit":"m.s-1","parameterCategory":2,"la1":30.2991,"la2":30.254,"lo1":-89.0895,"lo2":-89.0444,"dy":0.0017,"dx":0.0017,"nx":28,"ny":28,"refTime":"2024-12-16T03:00:00:Z","depth":"0","parameterNumber":3,"parameterNumberName":"V-component_of_CURRENTS"},"data":[0,0,0,0,0,0,0,0,0,0,0,0,0,0,0,0,0,0,0,0,0,0,0,0,0,0,0,0,0,0,0,0,0,0,0,0,0,0,0,0,0,0,0,0,0,0,0,0,0,0,0,0,0,0,0,0,0,0,-0.0296,-0.0295,0,-0.0187,-0.0186,-0.0184,-0.0102,-0.0102,-0.0101,-0.0101,0.0081,0.0085,0.0089,0,0,0,0,0,0,0,0,0,0,0,0,0,-0.0344,-0.0344,-0.0296,-0.0295,-0.0294,-0.0187,-0.0186,-0.0184,-0.0102,-0.0102,-0.0101,-0.01,0.0079,0.0084,0.0089,0,0,0,0,0,0,0,0,0,0,0,0,0,-0.0286,-0.0344,-0.0296,-0.0242,-0.0236,-0.0188,-0.0186,-0.0184,-0.0103,-0.0102,-0.0101,-0.01,0.0078,0.0084,0.009,0.0112,0,0,0.011,0.0113,0,0,0,0,0,0,0,0,-0.029,-0.0285,-0.0251,-0.0245,-0.0239,-0.0159,-0.0136,-0.0082,-0.0103,-0.0151,-0.0101,-0.01,0.0005,0.0018,0.0038,0.0121,0.0129,0.011,0.0114,0.0117,0.0119,0,0,0,0,0,0,0,-0.0294,-0.0288,-0.0251,-0.025,-0.0242,-0.0192,-0.0183,-0.0125,-0.0076,-0.0147,-0.0141,-0.0132,0.001,0.0031,0.0043,0.0131,0.011,0.0116,0.012,0.0122,0.0263,0.0263,0,0,0,0,0,0,-0.0317,-0.0293,-0.0255,-0.0248,-0.0265,-0.0192,-0.0182,-0.0184,-0.0078,-0.0063,-0.0133,-0.0129,0.002,0.0035,0.005,0.0089,0.0117,0.0123,0.0127,0.0263,0.0263,0.0263,0,0,0,0,0,0,-0.0319,-0.0315,-0.0259,-0.0268,-0.0258,-0.0193,-0.0195,-0.0182,-0.0159,-0.0069,-0.0051,-0.0122,0.0021,0.0041,0.0099,0.0096,0.0126,0.0132,0.0263,0.0263,0.0263,0.0163,0,0,0,0,0,0,-0.0321,-0.0317,-0.0324,-0.0271,-0.0258,-0.0239,-0.0195,-0.0181,-0.0155,-0.0148,-0.0054,-0.0036,0.0023,0.0089,0.0106,0.0106,0.0137,0.0263,0.0263,0.0263,0.0166,0.0159,0.0153,0,0,0,0,0,-0.0323,-0.0341,-0.0325,-0.032,-0.0271,-0.024,-0.0229,-0.0177,-0.0156,-0.0151,-0.0086,-0.0039,0.01,0.0094,0.0114,0.0115,0.0264,0.0263,0.0263,0.0169,0.0161,0.0153,0,0,0,0,0,0,-0.0366,-0.0332,-0.0314,-0.0321,-0.0287,-0.0227,-0.0219,-0.0186,-0.0132,-0.0123,-0.0039,-0.0017,0.0031,0.0087,0.0078,0.0155,0.0189,0.0193,0.0111,0.0104,0.0097,0.008,0.0142,0,0,0,0,0,-0.0381,-0.0385,-0.0341,-0.0347,-0.0335,-0.0279,-0.0259,-0.0227,-0.0174,-0.015,-0.0085,-0.0015,0.0044,0.0083,0.0141,0.0186,0.0242,0.02,0.0193,0.0187,0.0186,0.0263,0.0263,0.0262,0.0262,0.0262,0,0,-0.0398,-0.0382,-0.0383,-0.0356,-0.0325,-0.0314,-0.0265,-0.0244,-0.0227,-0.0138,-0.0097,-0.0038,0.0049,0.0096,0.0123,0.0144,0.0216,0.0187,0.0181,0.0184,0.0262,0.0263,0.0263,0.0262,0.0262,0.0262,0,0,-0.0439,-0.0424,-0.0438,-0.0416,-0.0381,-0.0345,-0.0345,-0.029,-0.0258,-0.0216,-0.0149,-0.0092,-0.0003,0.0059,0.0103,0.0097,0.0173,0.0114,0.0076,0.0149,0.015,0.0151,0.0213,0.0221,0.0117,0.0117,0.0117,0,-0.0462,-0.0474,-0.0437,-0.0442,-0.0428,-0.0366,-0.0372,-0.0332,-0.0264,-0.0237,-0.0215,-0.0084,-0.0018,0.0052,0.0047,0.0083,0.0132,0.0095,0.014,0.0142,0.0145,0.0209,0.0219,0.0112,0.0113,0.0113,0.0114,0,-0.0507,-0.0513,-0.0521,-0.0507,-0.0487,-0.0483,-0.0428,-0.0402,-0.0358,-0.0309,-0.0242,-0.0152,-0.0069,-0.0045,0.0001,0.0054,0.0083,0.0114,0.0154,0.0139,0.0208,0.0219,0.0105,0.0107,0.0108,0.0109,0,0,-0.0567,-0.0557,-0.0558,-0.0563,-0.0521,-0.0512,-0.0486,-0.0441,-0.0418,-0.0348,-0.0306,-0.0214,-0.0161,-0.0109,-0.0041,0.0019,0.0076,0.0065,0.0072,0.0117,0.0231,0.0273,0.0291,0.0112,0.0114,0.0115,0.0266,0,-0.0612,-0.0645,-0.0618,-0.0636,-0.0646,-0.0585,-0.0567,-0.0514,-0.0453,-0.0397,-0.0298,-0.0236,-0.0184,-0.0148,-0.0079,0.0043,0.0104,0.0032,0.0248,0.0255,0.0286,0.0306,0.0334,0.0473,0.0278,0.028,0.0282,0,-0.0662,-0.0678,-0.071,-0.0703,-0.07,-0.0696,-0.065,-0.0623,-0.0525,-0.0476,-0.039,-0.0308,-0.0202,-0.0164,0.0035,-0.0014,0.0094,0.0183,0.0192,0.0277,0.032,0.0461,0.0503,0.0665,0.0301,0.03,0.0298,0,-0.0724,-0.0739,-0.0769,-0.0767,-0.0747,-0.0745,-0.0725,-0.0649,-0.0623,-0.0522,-0.0483,-0.0345,-0.0267,-0.0117,0.0071,0.0055,0.029,0.0301,0.0441,0.0445,0.0536,0.0546,0.0755,0.0433,0.0432,0.0432,0.0431,0,-0.0783,-0.0805,-0.0803,-0.0821,-0.0852,-0.0809,-0.0811,-0.0766,-0.0694,-0.0657,-0.053,-0.046,-0.0254,-0.0092,0.0067,0.0302,0.0299,0.0443,0.0493,0.0501,0.0505,0.0705,0.0758,0.0438,0.0436,0.0435,0.0434,0,-0.0842,-0.084,-0.0879,-0.0881,-0.0884,-0.0904,-0.0885,-0.0877,-0.0798,-0.0743,-0.0715,-0.0535,-0.0317,-0.0098,0.0165,0.0302,0.0621,0.0594,0.0583,0.0628,0.0889,0.0933,0.1188,0.1277,0.0769,0.0771,0.0773,0,-0.0876,-0.0902,-0.0934,-0.0965,-0.097,-0.0989,-0.0999,-0.094,-0.0922,-0.0779,-0.0755,-0.0542,-0.0366,0.0041,0.0318,0.062,0.0734,0.0806,0.0781,0.0921,0.1009,0.1037,0.1094,0.0864,0.0867,0.0869,0.087,0,-0.0937,-0.0944,-0.0975,-0.1045,-0.1075,-0.1101,-0.1105,-0.1108,-0.1019,-0.0941,-0.0792,-0.0638,-0.0239,0.0124,0.0507,0.0686,0.0921,0.0853,0.1019,0.1119,0.1147,0.1249,0.0735,0.0887,0.0885,0.0884,0.0883,0.0883,-0.0971,-0.1013,-0.1056,-0.1116,-0.1158,-0.1195,-0.1206,-0.1181,-0.1132,-0.0988,-0.0833,-0.056,-0.0046,0.0509,0.0715,0.1135,0.1087,0.1252,0.13,0.1321,0.1394,0.0906,0.1096,0.1096,0.1095,0.1095,0.1095,0,-0.101,-0.1056,-0.1125,-0.119,-0.1243,-0.1245,-0.1257,-0.1228,-0.116,-0.0985,-0.0798,-0.0226,0.0283,0.075,0.1341,0.1568,0.1609,0.1681,0.1738,0.1779,0.1383,0.1374,0.1607,0.1607,0.1607,0.1607,0.1607,0.1606,-0.1032,-0.1101,-0.1138,-0.1237,-0.1282,-0.1312,-0.131,-0.1241,-0.1111,-0.0792,-0.047,-0.0207,0.0461,0.1402,0.1942,0.1992,0.2172,0.2158,0.2257,0.1987,0.195,0.1915,0.1923,0.2268,0.2269,0.2638,0.2642,0.2645]}],[{"header":{"parameterUnit":"m.s-1","parameterCategory":2,"la1":30.2991,"la2":30.254,"lo1":-89.0895,"lo2":-89.0444,"dy":0.0017,"dx":0.0017,"nx":28,"ny":28,"refTime":"2024-12-16T03:00:00:Z","depth":"2","parameterNumber":2,"parameterNumberName":"U-component_of_CURRENTS"},"data":[0,0,0,0,0,0,0,0,0,0,0,0,0,0,0,0,0,0,0,0,0,0,0,0,0,0,0,0,0,0,0,0,0,0,0,0,0,0,0,0,0,0,0,0,0,0,0,0,0,0,0,0,0,0,0,0,0,0,-0.2414,-0.2415,0,-0.2468,-0.2468,-0.2469,-0.2432,-0.2431,-0.2429,-0.2428,-0.2426,-0.2427,-0.2429,0,0,0,0,0,0,0,0,0,0,0,0,0,-0.2293,-0.2295,-0.2414,-0.2415,-0.2416,-0.2468,-0.2468,-0.2469,-0.2432,-0.2431,-0.2429,-0.2427,-0.2426,-0.2427,-0.2429,0,0,0,0,0,0,0,0,0,0,0,0,0,-0.2344,-0.2296,-0.2414,-0.2405,-0.2405,-0.2468,-0.2468,-0.2469,-0.2433,-0.2431,-0.2428,-0.2426,-0.2425,-0.2427,-0.2429,-0.2484,0,0,-0.2435,-0.2436,0,0,0,0,0,0,0,0,-0.2341,-0.2348,-0.2406,-0.2406,-0.2406,-0.2443,-0.2425,-0.2472,-0.2433,-0.242,-0.2428,-0.2425,-0.243,-0.2431,-0.2444,-0.2484,-0.2484,-0.2435,-0.2436,-0.2437,-0.2438,0,0,0,0,0,0,0,-0.2337,-0.2345,-0.2433,-0.2407,-0.2407,-0.2404,-0.2408,-0.2434,-0.2433,-0.2421,-0.2419,-0.2429,-0.2429,-0.2442,-0.2443,-0.2484,-0.2435,-0.2437,-0.2438,-0.2439,-0.2531,-0.2533,0,0,0,0,0,0,-0.2338,-0.2343,-0.2431,-0.2435,-0.237,-0.2408,-0.2413,-0.2431,-0.2434,-0.2434,-0.2431,-0.2428,-0.244,-0.2441,-0.2443,-0.2469,-0.2437,-0.2439,-0.244,-0.253,-0.2532,-0.2533,0,0,0,0,0,0,-0.2335,-0.2346,-0.2429,-0.2391,-0.2401,-0.2413,-0.2434,-0.2434,-0.2442,-0.2443,-0.2441,-0.2438,-0.2438,-0.244,-0.2463,-0.2469,-0.244,-0.2442,-0.2529,-0.2531,-0.2532,-0.2545,0,0,0,0,0,0,-0.2332,-0.2345,-0.2359,-0.2391,-0.2404,-0.246,-0.2436,-0.2436,-0.2453,-0.2448,-0.2449,-0.2447,-0.2436,-0.2461,-0.2465,-0.2471,-0.2443,-0.2527,-0.2529,-0.2532,-0.2543,-0.2548,-0.2551,0,0,0,0,0,-0.2327,-0.2354,-0.2359,-0.237,-0.2423,-0.2461,-0.2467,-0.2465,-0.2455,-0.2463,-0.2465,-0.2447,-0.2478,-0.2464,-0.2469,-0.2476,-0.2526,-0.2529,-0.2532,-0.2542,-0.2547,-0.2551,0,0,0,0,0,0,-0.2309,-0.2355,-0.236,-0.24,-0.2426,-0.2455,-0.2469,-0.2474,-0.2486,-0.248,-0.2472,-0.2471,-0.2489,-0.2494,-0.2477,-0.2511,-0.2497,-0.2501,-0.2503,-0.2508,-0.2511,-0.2503,-0.2445,0,0,0,0,0,-0.2316,-0.2343,-0.2384,-0.2413,-0.243,-0.2453,-0.2469,-0.2473,-0.2491,-0.2493,-0.2495,-0.2501,-0.2511,-0.2516,-0.2526,-0.2558,-0.2549,-0.2565,-0.2568,-0.2572,-0.257,-0.2566,-0.2568,-0.2543,-0.2543,-0.2543,0,0,-0.2317,-0.2345,-0.2361,-0.241,-0.2431,-0.2461,-0.2456,-0.2487,-0.2503,-0.2494,-0.2514,-0.2518,-0.2524,-0.2544,-0.2553,-0.2545,-0.2577,-0.2575,-0.2578,-0.2574,-0.2569,-0.2571,-0.2573,-0.2545,-0.2544,-0.2544,0,0,-0.2329,-0.236,-0.2385,-0.2413,-0.2452,-0.2471,-0.2481,-0.2517,-0.2521,-0.2554,-0.2542,-0.2552,-0.2579,-0.2575,-0.2579,-0.262,-0.2597,-0.2624,-0.2636,-0.2632,-0.2634,-0.2635,-0.2631,-0.2632,-0.2626,-0.2626,-0.2626,0,-0.2327,-0.2365,-0.2397,-0.2428,-0.2449,-0.2475,-0.2502,-0.2524,-0.2558,-0.2566,-0.2558,-0.2589,-0.2591,-0.2607,-0.2614,-0.2625,-0.262,-0.2613,-0.2635,-0.2636,-0.2637,-0.2633,-0.2633,-0.2627,-0.2627,-0.2627,-0.2627,0,-0.2355,-0.2386,-0.2405,-0.2449,-0.2478,-0.2508,-0.2544,-0.2567,-0.2579,-0.2594,-0.2615,-0.2622,-0.2633,-0.2638,-0.2638,-0.265,-0.2643,-0.2637,-0.2616,-0.2639,-0.2635,-0.2635,-0.2628,-0.2628,-0.2628,-0.2627,0,0,-0.2337,-0.241,-0.2413,-0.2433,-0.2491,-0.2514,-0.2554,-0.259,-0.261,-0.2631,-0.265,-0.2663,-0.2661,-0.2666,-0.2665,-0.2664,-0.2667,-0.2655,-0.2654,-0.2639,-0.2658,-0.2583,-0.2575,-0.266,-0.266,-0.266,-0.2653,0,-0.2342,-0.2393,-0.2432,-0.2471,-0.2498,-0.254,-0.2574,-0.261,-0.2636,-0.2664,-0.2669,-0.2687,-0.2674,-0.2679,-0.2677,-0.2675,-0.2668,-0.267,-0.2648,-0.2648,-0.2567,-0.2573,-0.238,-0.2351,-0.2653,-0.2653,-0.2653,0,-0.2342,-0.2379,-0.2419,-0.2478,-0.2495,-0.2524,-0.2574,-0.2608,-0.2658,-0.268,-0.2696,-0.2707,-0.2717,-0.2701,-0.2692,-0.2694,-0.2675,-0.2667,-0.2666,-0.2588,-0.2572,-0.2377,-0.234,-0.2653,-0.2653,-0.2653,-0.2653,0,-0.2288,-0.2359,-0.2386,-0.2408,-0.2487,-0.2509,-0.2546,-0.2603,-0.2633,-0.2683,-0.2706,-0.2723,-0.2728,-0.2715,-0.2696,-0.2698,-0.268,-0.268,-0.2592,-0.2587,-0.2414,-0.2393,-0.2661,-0.2661,-0.2661,-0.2661,-0.2661,0,-0.2264,-0.2281,-0.2363,-0.2377,-0.2407,-0.2476,-0.2511,-0.2554,-0.2621,-0.2648,-0.2699,-0.2715,-0.273,-0.2725,-0.2705,-0.2642,-0.2682,-0.2588,-0.2575,-0.2415,-0.2395,-0.2651,-0.2649,-0.266,-0.266,-0.266,-0.266,0,-0.2186,-0.2245,-0.2275,-0.2358,-0.2379,-0.2395,-0.2479,-0.2507,-0.2583,-0.2621,-0.2637,-0.2706,-0.2699,-0.2699,-0.2683,-0.2638,-0.26,-0.2564,-0.2376,-0.234,-0.2512,-0.2512,-0.2474,-0.2471,-0.2469,-0.2467,-0.2465,0,-0.2147,-0.2156,-0.2233,-0.2247,-0.2279,-0.2325,-0.2356,-0.2459,-0.2493,-0.26,-0.2605,-0.2641,-0.2622,-0.2582,-0.2522,-0.2463,-0.2533,-0.2251,-0.2214,-0.2499,-0.2491,-0.2495,-0.2498,-0.1997,-0.1992,-0.1987,-0.1984,0,-0.2057,-0.2086,-0.2111,-0.2145,-0.2176,-0.2215,-0.2271,-0.2297,-0.2412,-0.2448,-0.2484,-0.2484,-0.2471,-0.2326,-0.2265,-0.2205,-0.2249,-0.216,-0.2492,-0.2077,-0.2049,-0.2042,-0.2061,-0.1945,-0.1949,-0.1952,-0.1954,-0.1955,-0.197,-0.1965,-0.1998,-0.2016,-0.2052,-0.2068,-0.2053,-0.2128,-0.2152,-0.2173,-0.2282,-0.2221,-0.2219,-0.2026,-0.1934,-0.1867,-0.2019,-0.1922,-0.1935,-0.1953,-0.1902,-0.1872,-0.1725,-0.1727,-0.1729,-0.1731,-0.1733,0,-0.1847,-0.1856,-0.1867,-0.188,-0.186,-0.1929,-0.1959,-0.1917,-0.1885,-0.1948,-0.1948,-0.1761,-0.1675,-0.1685,-0.1527,-0.1499,-0.1481,-0.1431,-0.1408,-0.1447,-0.1482,-0.1407,-0.1098,-0.1096,-0.1094,-0.1093,0,0,-0.1781,-0.1742,-0.1748,-0.167,-0.1679,-0.1603,-0.1583,-0.1545,-0.1548,-0.1475,-0.1454,-0.1588,-0.1632,-0.1368,-0.1306,-0.118,-0.1298,-0.1117,-0.1625,-0.1636,-0.1669,-0.176,-0.1689,0,0,0,0,0]},{"header":{"parameterUnit":"m.s-1","parameterCategory":2,"la1":30.2991,"la2":30.254,"lo1":-89.0895,"lo2":-89.0444,"dy":0.0017,"dx":0.0017,"nx":28,"ny":28,"refTime":"2024-12-16T03:00:00:Z","depth":"2","parameterNumber":3,"parameterNumberName":"V-component_of_CURRENTS"},"data":[0,0,0,0,0,0,0,0,0,0,0,0,0,0,0,0,0,0,0,0,0,0,0,0,0,0,0,0,0,0,0,0,0,0,0,0,0,0,0,0,0,0,0,0,0,0,0,0,0,0,0,0,0,0,0,0,0,0,-0.0274,-0.0273,0,-0.0177,-0.0176,-0.0175,-0.0101,-0.01,-0.01,-0.0099,0.0064,0.0068,0.0072,0,0,0,0,0,0,0,0,0,0,0,0,0,-0.0312,-0.0312,-0.0274,-0.0273,-0.0272,-0.0177,-0.0176,-0.0174,-0.0101,-0.01,-0.01,-0.0099,0.0063,0.0067,0.0072,0,0,0,0,0,0,0,0,0,0,0,0,0,-0.0262,-0.0312,-0.0274,-0.0225,-0.022,-0.0178,-0.0176,-0.0174,-0.0101,-0.01,-0.0099,-0.0099,0.0061,0.0067,0.0073,0.0092,0,0,0.009,0.0093,0,0,0,0,0,0,0,0,-0.0265,-0.0261,-0.0234,-0.0229,-0.0223,-0.0152,-0.0129,-0.0082,-0.0101,-0.0144,-0.0099,-0.0098,-0.0004,0.0007,0.0025,0.01,0.0107,0.0091,0.0094,0.0097,0.0098,0,0,0,0,0,0,0,-0.0269,-0.0264,-0.0234,-0.0233,-0.0226,-0.0179,-0.0172,-0.012,-0.0077,-0.014,-0.0135,-0.0128,0.0,0.002,0.003,0.0109,0.0091,0.0096,0.0099,0.0101,0.0231,0.0231,0,0,0,0,0,0,-0.029,-0.0268,-0.0237,-0.0231,-0.0244,-0.018,-0.0171,-0.0174,-0.0079,-0.0065,-0.0128,-0.0125,0.0009,0.0023,0.0036,0.0075,0.0097,0.0102,0.0105,0.0231,0.0231,0.0231,0,0,0,0,0,0,-0.0291,-0.0288,-0.0241,-0.0248,-0.0239,-0.0181,-0.0184,-0.0172,-0.0151,-0.0071,-0.0055,-0.0119,0.0011,0.0028,0.0081,0.0082,0.0105,0.011,0.0231,0.0231,0.0231,0.0147,0,0,0,0,0,0,-0.0293,-0.029,-0.0296,-0.025,-0.0239,-0.0223,-0.0184,-0.0171,-0.0149,-0.0143,-0.0057,-0.0041,0.0012,0.0072,0.0087,0.009,0.0114,0.0231,0.0231,0.0231,0.015,0.0144,0.0139,0,0,0,0,0,-0.0294,-0.0311,-0.0298,-0.0294,-0.0252,-0.0224,-0.0214,-0.0168,-0.0149,-0.0145,-0.0086,-0.0044,0.0083,0.0076,0.0094,0.0099,0.0231,0.0231,0.0231,0.0152,0.0145,0.0139,0,0,0,0,0,0,-0.0332,-0.0304,-0.0288,-0.0296,-0.0265,-0.0212,-0.0205,-0.0176,-0.0127,-0.012,-0.0044,-0.0024,0.0021,0.0071,0.0062,0.0136,0.0164,0.0167,0.0098,0.0092,0.0087,0.007,0.0119,0,0,0,0,0,-0.0346,-0.0351,-0.0313,-0.0319,-0.0308,-0.0259,-0.0241,-0.0212,-0.0165,-0.0143,-0.0085,-0.0021,0.0034,0.007,0.0122,0.0164,0.0212,0.0179,0.0174,0.0169,0.0168,0.0236,0.0237,0.0231,0.0231,0.0231,0,0,-0.0362,-0.0348,-0.035,-0.0327,-0.03,-0.0289,-0.0246,-0.0228,-0.0211,-0.0133,-0.0094,-0.0041,0.0039,0.0083,0.0109,0.0127,0.0194,0.0169,0.0164,0.0166,0.0236,0.0237,0.0237,0.0231,0.0231,0.0231,0,0,-0.0398,-0.0387,-0.04,-0.038,-0.0349,-0.0317,-0.0317,-0.0268,-0.0239,-0.0199,-0.0139,-0.0086,-0.0004,0.0055,0.0095,0.0094,0.0158,0.0108,0.0078,0.0144,0.0145,0.0146,0.0196,0.0202,0.0113,0.0113,0.0113,0,-0.0419,-0.043,-0.0399,-0.0403,-0.0389,-0.0335,-0.0339,-0.0303,-0.0241,-0.0216,-0.0198,-0.0077,-0.0015,0.0053,0.005,0.0083,0.0123,0.0093,0.0136,0.0139,0.0142,0.0192,0.0201,0.0109,0.0109,0.0109,0.011,0,-0.0458,-0.0464,-0.0471,-0.0458,-0.0439,-0.0436,-0.0385,-0.036,-0.0322,-0.0277,-0.0213,-0.0131,-0.0055,-0.0031,0.0011,0.0063,0.0084,0.0113,0.0147,0.0137,0.0191,0.0201,0.0103,0.0104,0.0105,0.0106,0,0,-0.0514,-0.0502,-0.0504,-0.0507,-0.0469,-0.046,-0.0434,-0.039,-0.037,-0.0305,-0.0266,-0.0176,-0.0131,-0.0082,-0.002,0.0036,0.0086,0.0074,0.008,0.0114,0.0219,0.0246,0.026,0.012,0.0121,0.0122,0.0243,0,-0.0553,-0.058,-0.0555,-0.0569,-0.0576,-0.0521,-0.0502,-0.0453,-0.0398,-0.0347,-0.0254,-0.0199,-0.0148,-0.0117,-0.0052,0.0055,0.011,0.0049,0.0232,0.0238,0.0256,0.0273,0.0236,0.0342,0.0254,0.0256,0.0257,0,-0.0598,-0.061,-0.0636,-0.0626,-0.0624,-0.0619,-0.0577,-0.0551,-0.0462,-0.0418,-0.0339,-0.0265,-0.0167,-0.0131,0.0047,0.0004,0.0099,0.0178,0.0185,0.0249,0.0285,0.0343,0.0365,0.0275,0.0273,0.0272,0.0271,0,-0.0655,-0.0664,-0.0688,-0.0685,-0.0664,-0.0662,-0.0644,-0.0575,-0.0552,-0.0461,-0.043,-0.0301,-0.0233,-0.0097,0.0068,0.0059,0.026,0.0275,0.039,0.0393,0.0419,0.0421,0.0394,0.0394,0.0394,0.0393,0.0393,0,-0.0706,-0.0726,-0.072,-0.0736,-0.0763,-0.0722,-0.0725,-0.0685,-0.0621,-0.0592,-0.0474,-0.0417,-0.0224,-0.0083,0.0061,0.0263,0.0264,0.039,0.0432,0.0387,0.0385,0.0374,0.037,0.0398,0.0397,0.0396,0.0395,0,-0.0762,-0.0758,-0.079,-0.0789,-0.0793,-0.0812,-0.0796,-0.0791,-0.0722,-0.0678,-0.0655,-0.0493,-0.0304,-0.0105,0.013,0.0254,0.044,0.0508,0.0433,0.0464,0.0526,0.0516,0.0647,0.0649,0.0651,0.0652,0.0653,0,-0.0793,-0.0816,-0.0843,-0.0871,-0.0876,-0.0894,-0.0905,-0.0852,-0.0838,-0.072,-0.0702,-0.0519,-0.0369,-0.0012,0.0235,0.05,0.0499,0.0608,0.0589,0.0527,0.0555,0.0543,0.0531,0.0587,0.0587,0.0588,0.0588,0,-0.0851,-0.0858,-0.0885,-0.0947,-0.0977,-0.1002,-0.1008,-0.1014,-0.0937,-0.0874,-0.0753,-0.0625,-0.0282,0.0011,0.0348,0.0496,0.0563,0.0627,0.0609,0.0522,0.048,0.0503,0.0493,0.0593,0.0592,0.0592,0.0592,0.0591,-0.0887,-0.0924,-0.0962,-0.1017,-0.1058,-0.1093,-0.1106,-0.1087,-0.1049,-0.0932,-0.0806,-0.0579,-0.0299,0.0186,0.0424,0.0642,0.0641,0.0692,0.0687,0.0682,0.0647,0.061,0.074,0.074,0.0741,0.0741,0.0741,0,-0.0928,-0.0967,-0.103,-0.1089,-0.114,-0.1142,-0.1157,-0.1133,-0.108,-0.094,-0.0788,-0.0469,-0.0134,0.0162,0.0512,0.0719,0.0696,0.0745,0.0673,0.0668,0.0663,0.0624,0.0713,0.0714,0.0714,0.0715,0,0,-0.095,-0.1012,-0.1044,-0.1137,-0.118,-0.1214,-0.1216,-0.1156,-0.1048,-0.0895,-0.0721,-0.0485,-0.0121,0.0117,0.0377,0.0558,0.0558,0.0572,0.0574,0.0453,0.0446,0.0614,0.0546,0,0,0,0,0]}],[{"header":{"parameterUnit":"m.s-1","parameterCategory":2,"la1":30.2991,"la2":30.254,"lo1":-89.0895,"lo2":-89.0444,"dy":0.0017,"dx":0.0017,"nx":28,"ny":28,"refTime":"2024-12-16T03:00:00:Z","depth":"4","parameterNumber":2,"parameterNumberName":"U-component_of_CURRENTS"},"data":[0,0,0,0,0,0,0,0,0,0,0,0,0,0,0,0,0,0,0,0,0,0,0,0,0,0,0,0,0,0,0,0,0,0,0,0,0,0,0,0,0,0,0,0,0,0,0,0,0,0,0,0,0,0,0,0,0,0,-0.1712,-0.1713,0,-0.1786,-0.1787,-0.1787,-0.1812,-0.1812,-0.1812,-0.1812,-0.187,-0.1871,-0.1873,0,0,0,0,0,0,0,0,0,0,0,0,0,-0.1604,-0.1605,-0.1712,-0.1713,-0.1714,-0.1786,-0.1787,-0.1787,-0.1812,-0.1812,-0.1812,-0.1812,-0.1869,-0.1871,-0.1873,0,0,0,0,0,0,0,0,0,0,0,0,0,-0.166,-0.1606,-0.1712,-0.1737,-0.174,-0.1786,-0.1787,-0.1788,-0.1813,-0.1812,-0.1812,-0.1812,-0.1869,-0.1871,-0.1873,-0.1893,0,0,-0.1881,-0.1882,0,0,0,0,0,0,0,0,-0.1656,-0.1663,-0.1732,-0.1735,-0.1739,-0.1791,-0.177,-0.1823,-0.1813,-0.1783,-0.1812,-0.1812,-0.1843,-0.1848,-0.186,-0.1896,-0.1899,-0.1881,-0.1883,-0.1884,-0.1885,0,0,0,0,0,0,0,-0.1653,-0.1661,-0.174,-0.1733,-0.1737,-0.1748,-0.1755,-0.178,-0.1812,-0.1786,-0.1788,-0.1799,-0.1845,-0.1858,-0.1862,-0.1899,-0.1881,-0.1883,-0.1885,-0.1886,-0.2001,-0.2002,0,0,0,0,0,0,-0.1647,-0.1657,-0.1738,-0.1742,-0.1698,-0.175,-0.1758,-0.1773,-0.1812,-0.1819,-0.1799,-0.18,-0.1853,-0.1859,-0.1864,-0.1932,-0.1884,-0.1886,-0.1888,-0.1999,-0.2001,-0.2003,0,0,0,0,0,0,-0.1644,-0.1653,-0.1735,-0.1702,-0.1713,-0.1752,-0.1769,-0.1775,-0.1813,-0.1823,-0.1828,-0.1834,-0.1853,-0.186,-0.191,-0.1933,-0.1887,-0.189,-0.1997,-0.2,-0.2002,-0.2042,0,0,0,0,0,0,-0.1641,-0.1652,-0.1676,-0.1702,-0.1715,-0.1775,-0.1769,-0.1776,-0.1819,-0.1822,-0.1854,-0.1858,-0.1854,-0.1906,-0.1912,-0.1935,-0.1892,-0.1996,-0.1999,-0.2001,-0.2038,-0.2045,-0.2051,0,0,0,0,0,-0.1637,-0.1664,-0.1677,-0.1688,-0.1742,-0.1776,-0.1784,-0.1809,-0.1822,-0.1842,-0.1869,-0.1858,-0.1928,-0.191,-0.1917,-0.1941,-0.1994,-0.1998,-0.2001,-0.2035,-0.2044,-0.205,0,0,0,0,0,0,-0.1632,-0.167,-0.1685,-0.1724,-0.1755,-0.1781,-0.1811,-0.1828,-0.1868,-0.188,-0.1884,-0.1891,-0.1938,-0.1942,-0.1921,-0.1983,-0.1957,-0.1962,-0.1981,-0.1989,-0.1995,-0.1985,-0.1894,0,0,0,0,0,-0.1642,-0.1673,-0.1706,-0.1741,-0.176,-0.1793,-0.1817,-0.1836,-0.1867,-0.1885,-0.1909,-0.1935,-0.1955,-0.1974,-0.1993,-0.2036,-0.202,-0.2055,-0.2061,-0.2066,-0.2064,-0.2059,-0.2064,-0.2014,-0.2014,-0.2014,0,0,-0.1652,-0.1677,-0.1697,-0.1742,-0.1771,-0.1804,-0.1808,-0.1854,-0.1885,-0.1886,-0.1947,-0.1961,-0.1972,-0.2012,-0.2034,-0.2021,-0.2075,-0.2071,-0.2075,-0.207,-0.2063,-0.2068,-0.2072,-0.2017,-0.2016,-0.2016,0,0,-0.1671,-0.171,-0.1737,-0.1767,-0.1815,-0.1835,-0.1855,-0.1901,-0.1928,-0.1984,-0.1986,-0.2018,-0.2065,-0.2067,-0.2074,-0.213,-0.2106,-0.2143,-0.2169,-0.2164,-0.2168,-0.2171,-0.2161,-0.2162,-0.2147,-0.2147,-0.2147,0,-0.1684,-0.172,-0.1751,-0.1783,-0.1813,-0.1852,-0.1886,-0.1921,-0.1978,-0.2001,-0.2011,-0.2072,-0.2085,-0.2113,-0.2132,-0.2142,-0.2135,-0.2137,-0.217,-0.2173,-0.2175,-0.2164,-0.2165,-0.2149,-0.2149,-0.2149,-0.2149,0,-0.1711,-0.1753,-0.1775,-0.1825,-0.1861,-0.1901,-0.1945,-0.1991,-0.2032,-0.2057,-0.211,-0.2129,-0.2158,-0.2171,-0.2172,-0.2198,-0.2186,-0.2175,-0.2145,-0.2181,-0.2168,-0.2169,-0.2153,-0.2152,-0.2151,-0.2151,0,0,-0.1697,-0.1778,-0.1788,-0.1818,-0.1888,-0.1915,-0.1978,-0.203,-0.2068,-0.2122,-0.2162,-0.2199,-0.2209,-0.2218,-0.2222,-0.2224,-0.2238,-0.2214,-0.2212,-0.2193,-0.2227,-0.2087,-0.2074,-0.2233,-0.2233,-0.2234,-0.2213,0,-0.1709,-0.1768,-0.1809,-0.1872,-0.1904,-0.1962,-0.2012,-0.2068,-0.2115,-0.2167,-0.219,-0.223,-0.2227,-0.2246,-0.2249,-0.2244,-0.2241,-0.2245,-0.2204,-0.2203,-0.2064,-0.207,-0.2234,-0.2213,-0.2213,-0.2213,-0.2213,0,-0.1708,-0.175,-0.1812,-0.1891,-0.1913,-0.1961,-0.204,-0.2089,-0.2162,-0.2199,-0.2238,-0.226,-0.2285,-0.2275,-0.227,-0.2275,-0.2256,-0.2243,-0.2242,-0.2094,-0.2062,-0.217,-0.2213,-0.2213,-0.2213,-0.2213,-0.2213,0,-0.1656,-0.1746,-0.1795,-0.1825,-0.1923,-0.1968,-0.2022,-0.2101,-0.2141,-0.2218,-0.2248,-0.2284,-0.2301,-0.2291,-0.2271,-0.2278,-0.225,-0.2251,-0.2104,-0.2095,-0.221,-0.2207,-0.2235,-0.2235,-0.2235,-0.2235,-0.2235,0,-0.1627,-0.1669,-0.1782,-0.1808,-0.1869,-0.1949,-0.2015,-0.2073,-0.2155,-0.2184,-0.2257,-0.2266,-0.2306,-0.2297,-0.2277,-0.2178,-0.225,-0.2097,-0.2073,-0.223,-0.2229,-0.221,-0.2208,-0.2235,-0.2235,-0.2235,-0.2235,0,-0.1551,-0.1629,-0.169,-0.1807,-0.1845,-0.1887,-0.2,-0.2036,-0.2128,-0.2167,-0.2191,-0.2259,-0.224,-0.2251,-0.2231,-0.2159,-0.2098,-0.2045,-0.221,-0.2197,-0.195,-0.1951,-0.188,-0.1875,-0.187,-0.1866,-0.1863,0,-0.1511,-0.1538,-0.1668,-0.1702,-0.1759,-0.184,-0.1885,-0.2002,-0.203,-0.2131,-0.2125,-0.216,-0.2181,-0.2029,-0.207,-0.2007,-0.1983,-0.1943,-0.1947,-0.1927,-0.1911,-0.1919,-0.1925,-0.1856,-0.1855,-0.1854,-0.1853,0,-0.1427,-0.1491,-0.1541,-0.1612,-0.1673,-0.1728,-0.1801,-0.1807,-0.192,-0.203,-0.199,-0.1972,-0.1947,-0.1923,-0.188,-0.1841,-0.1966,-0.1896,-0.1906,-0.1909,-0.1898,-0.1888,-0.1899,-0.1837,-0.1839,-0.1841,-0.1842,0,-0.1362,-0.1376,-0.1449,-0.1493,-0.1565,-0.1574,-0.1639,-0.166,-0.1703,-0.1819,-0.1801,-0.1842,-0.1917,-0.1835,-0.18,-0.1745,-0.1725,-0.1668,-0.1689,-0.1707,-0.1659,-0.162,-0.1438,0,0,0,0,0,-0.1285,-0.1283,-0.1318,-0.1358,-0.1423,-0.1457,-0.1555,-0.1622,-0.1736,-0.1654,-0.1721,-0.1689,-0.164,-0.1672,-0.1576,-0.173,-0.1736,-0.1613,-0.1683,-0.1751,-0.1769,-0.1729,0,0,0,0,0,0,-0.123,-0.1261,-0.1269,-0.1225,-0.1224,-0.1274,-0.1327,-0.1413,-0.1378,-0.1501,-0.1478,-0.1578,-0.1553,-0.1655,-0.1536,-0.1544,-0.1552,-0.1656,-0.1651,-0.1741,-0.1757,-0.1772,-0.1737,0,0,0,0,0]},{"header":{"parameterUnit":"m.s-1","parameterCategory":2,"la1":30.2991,"la2":30.254,"lo1":-89.0895,"lo2":-89.0444,"dy":0.0017,"dx":0.0017,"nx":28,"ny":28,"refTime":"2024-12-16T03:00:00:Z","depth":"4","parameterNumber":3,"parameterNumberName":"V-component_of_CURRENTS"},"data":[0,0,0,0,0,0,0,0,0,0,0,0,0,0,0,0,0,0,0,0,0,0,0,0,0,0,0,0,0,0,0,0,0,0,0,0,0,0,0,0,0,0,0,0,0,0,0,0,0,0,0,0,0,0,0,0,0,0,-0.0194,-0.0194,0,-0.0129,-0.0128,-0.0128,-0.0076,-0.0075,-0.0075,-0.0075,0.005,0.0053,0.0056,0,0,0,0,0,0,0,0,0,0,0,0,0,-0.0211,-0.0211,-0.0194,-0.0194,-0.0193,-0.0129,-0.0128,-0.0127,-0.0076,-0.0075,-0.0075,-0.0074,0.0049,0.0053,0.0056,0,0,0,0,0,0,0,0,0,0,0,0,0,-0.018,-0.0212,-0.0194,-0.0161,-0.0157,-0.013,-0.0128,-0.0127,-0.0076,-0.0075,-0.0075,-0.0074,0.0048,0.0052,0.0057,0.0073,0,0,0.007,0.0072,0,0,0,0,0,0,0,0,-0.0181,-0.0179,-0.0166,-0.0163,-0.0159,-0.0111,-0.0089,-0.0058,-0.0076,-0.0105,-0.0075,-0.0074,0.0,0.0009,0.0021,0.0079,0.0084,0.0071,0.0073,0.0075,0.0077,0,0,0,0,0,0,0,-0.0184,-0.0181,-0.0167,-0.0166,-0.0161,-0.0128,-0.0123,-0.0082,-0.0054,-0.0102,-0.0099,-0.0094,0.0003,0.0016,0.0024,0.0086,0.0071,0.0075,0.0077,0.0079,0.0183,0.0183,0,0,0,0,0,0,-0.0199,-0.0184,-0.0169,-0.0165,-0.0171,-0.0128,-0.0123,-0.0126,-0.0056,-0.0045,-0.0095,-0.0092,0.0009,0.0019,0.0029,0.0062,0.0075,0.0079,0.0082,0.0183,0.0183,0.0183,0,0,0,0,0,0,-0.02,-0.0199,-0.0172,-0.0173,-0.0168,-0.0129,-0.0133,-0.0125,-0.0112,-0.0051,-0.0039,-0.009,0.0009,0.0023,0.0063,0.0067,0.0081,0.0085,0.0183,0.0183,0.0183,0.0123,0,0,0,0,0,0,-0.0201,-0.02,-0.0207,-0.0175,-0.0168,-0.0161,-0.0133,-0.0124,-0.0111,-0.0107,-0.0043,-0.0031,0.0011,0.0056,0.0068,0.0074,0.0089,0.0183,0.0183,0.0183,0.0124,0.0121,0.0117,0,0,0,0,0,-0.0202,-0.0216,-0.0208,-0.0206,-0.018,-0.0162,-0.0155,-0.0124,-0.0112,-0.0109,-0.0065,-0.0033,0.0066,0.006,0.0073,0.008,0.0183,0.0183,0.0183,0.0126,0.0121,0.0117,0,0,0,0,0,0,-0.0228,-0.0211,-0.0202,-0.0211,-0.0191,-0.0153,-0.0151,-0.0131,-0.0095,-0.0091,-0.0032,-0.0017,0.0019,0.0057,0.0049,0.0111,0.013,0.0133,0.0082,0.0078,0.0075,0.0061,0.0093,0,0,0,0,0,-0.0239,-0.0246,-0.0221,-0.0229,-0.0222,-0.0189,-0.0178,-0.0158,-0.0124,-0.0108,-0.0064,-0.0014,0.003,0.0058,0.0099,0.0134,0.0169,0.0148,0.0144,0.0141,0.0139,0.0195,0.0196,0.0184,0.0184,0.0184,0,0,-0.0252,-0.0244,-0.0248,-0.0235,-0.0218,-0.0211,-0.018,-0.0171,-0.0158,-0.0099,-0.0071,-0.0029,0.0034,0.0072,0.0092,0.0106,0.0161,0.0141,0.0138,0.0138,0.0195,0.0197,0.0198,0.0184,0.0184,0.0184,0,0,-0.0279,-0.0276,-0.0288,-0.0275,-0.0256,-0.0233,-0.0234,-0.0201,-0.018,-0.0151,-0.0104,-0.006,0.0003,0.0053,0.0086,0.0089,0.0135,0.01,0.0079,0.0133,0.0134,0.0136,0.0169,0.0174,0.0105,0.0104,0.0104,0,-0.0296,-0.0306,-0.0287,-0.0291,-0.0284,-0.0248,-0.0252,-0.0225,-0.0181,-0.0162,-0.015,-0.0054,-0.0003,0.0056,0.0056,0.0081,0.011,0.0088,0.0127,0.013,0.0133,0.0166,0.0173,0.0102,0.0102,0.0102,0.0103,0,-0.0324,-0.0333,-0.0339,-0.0333,-0.0321,-0.0321,-0.0285,-0.0268,-0.0241,-0.0208,-0.0157,-0.009,-0.003,-0.0007,0.0026,0.0073,0.0084,0.011,0.0134,0.013,0.0166,0.0173,0.0097,0.0098,0.0099,0.01,0,0,-0.0365,-0.0361,-0.0365,-0.0369,-0.0344,-0.034,-0.032,-0.0289,-0.0276,-0.0225,-0.0197,-0.0119,-0.0085,-0.0045,0.0007,0.0055,0.0095,0.0083,0.0087,0.0108,0.0197,0.0177,0.0184,0.0125,0.0126,0.0127,0.0209,0,-0.0393,-0.0416,-0.04,-0.0415,-0.0421,-0.0385,-0.0371,-0.0336,-0.0297,-0.0261,-0.0184,-0.0142,-0.0096,-0.0073,-0.0016,0.007,0.0114,0.0069,0.0205,0.0209,0.0186,0.0193,0.0131,0.0215,0.0216,0.0218,0.0219,0,-0.0424,-0.0436,-0.046,-0.0459,-0.0458,-0.0461,-0.0434,-0.0416,-0.0351,-0.0319,-0.0256,-0.0199,-0.0115,-0.0085,0.0061,0.0028,0.0102,0.0165,0.0171,0.018,0.0204,0.0226,0.0234,0.0232,0.0231,0.023,0.0229,0,-0.0462,-0.0476,-0.0499,-0.0499,-0.049,-0.0495,-0.0487,-0.0438,-0.0425,-0.0357,-0.0338,-0.0229,-0.0177,-0.0065,0.0067,0.0065,0.0219,0.0239,0.0291,0.029,0.0309,0.0307,0.0333,0.0333,0.0333,0.0333,0.0333,0,-0.0493,-0.0515,-0.0525,-0.0539,-0.057,-0.0544,-0.0557,-0.0529,-0.0487,-0.0471,-0.0376,-0.0336,-0.0171,-0.0062,0.0055,0.0195,0.0217,0.0285,0.0313,0.028,0.0274,0.0314,0.0311,0.0336,0.0335,0.0335,0.0334,0,-0.0527,-0.0533,-0.0567,-0.058,-0.0591,-0.0614,-0.062,-0.0621,-0.0575,-0.055,-0.0533,-0.0408,-0.0263,-0.0101,0.0088,0.0173,0.0311,0.0353,0.029,0.0314,0.0346,0.0339,0.0417,0.0417,0.0417,0.0417,0.0417,0,-0.0543,-0.0565,-0.061,-0.0642,-0.0655,-0.0684,-0.0703,-0.0672,-0.0664,-0.0591,-0.0577,-0.0446,-0.0345,-0.0089,0.0075,0.0295,0.0324,0.0382,0.0376,0.0337,0.0357,0.0349,0.0342,0.0417,0.0417,0.0417,0.0417,0,-0.0576,-0.0597,-0.0626,-0.0695,-0.0734,-0.0766,-0.0784,-0.0786,-0.0738,-0.0704,-0.0599,-0.0461,-0.0299,-0.0096,0.0073,0.023,0.034,0.0384,0.0385,0.0379,0.0338,0.0356,0.0349,0.0417,0.0417,0.0417,0.0417,0,-0.06,-0.0633,-0.0679,-0.0733,-0.0791,-0.0824,-0.0829,-0.0802,-0.0782,-0.069,-0.0659,-0.0473,-0.0358,-0.013,0.0027,0.0179,0.0216,0.0254,0.0262,0.0264,0.0194,0.0119,0.0154,0,0,0,0,0,-0.0617,-0.0654,-0.0713,-0.0768,-0.0826,-0.0852,-0.087,-0.0859,-0.0818,-0.075,-0.0697,-0.0541,-0.0293,-0.0182,-0.0031,0.0015,0.0227,0.0192,0.0271,0.0419,0.0418,0.0361,0,0,0,0,0,0,-0.0629,-0.0686,-0.0712,-0.0782,-0.0825,-0.0876,-0.0888,-0.0863,-0.0807,-0.0749,-0.0609,-0.0524,-0.0277,-0.0376,-0.0033,0.0012,0.0077,0.0317,0.0319,0.0419,0.0419,0.0418,0.0359,0,0,0,0,0]}]]